This is the latest recevied weather packets stored in our database for station/object EB1GOD-1. If no packets are shown the sender has not sent any weather packets the latest 10 day(s).
| Time | Temp. | Humidity | Pressure | Rain* | Wind** | Luminosity | Snow |
|---|---|---|---|---|---|---|---|
| 1777370388 | 16.11° C | 83% | 1152.4 hPa | - | - | - | - |
| 1777369487 | 16.11° C | 87% | 1152.3 hPa | - | - | - | - |
| 1777368587 | 15° C | 88% | 1152.4 hPa | - | - | - | - |
| 1777367866 | 15° C | 89% | 1152.3 hPa | - | - | - | - |
| 1777367687 | 15° C | 89% | 1152.3 hPa | - | - | - | - |
| 1777366786 | 15° C | 88% | 1152.4 hPa | - | - | - | - |
| 1777365886 | 14.44° C | 87% | 1152.5 hPa | - | - | - | - |
| 1777364986 | 14.44° C | 87% | 1152.5 hPa | - | - | - | - |
| 1777364086 | 14.44° C | 87% | 1152.7 hPa | - | - | - | - |
| 1777363186 | 13.89° C | 87% | 1152.8 hPa | - | - | - | - |
| 1777362286 | 13.89° C | 87% | 1152.9 hPa | - | - | - | - |
| 1777361386 | 14.44° C | 88% | 1152.8 hPa | - | - | - | - |
| 1777360486 | 13.89° C | 90% | 1152.9 hPa | - | - | - | - |
| 1777359586 | 13.89° C | 90% | 1153 hPa | - | - | - | - |
| 1777358686 | 13.33° C | 90% | 1153 hPa | - | - | - | - |
| 1777356886 | 13.33° C | 90% | 1152.8 hPa | - | - | - | - |
| 1777355985 | 13.33° C | 92% | 1152.7 hPa | - | - | - | - |
| 1777355085 | 13.33° C | 91% | 1152.7 hPa | - | - | - | - |
| 1777354185 | 13.33° C | 90% | 1152.5 hPa | - | - | - | - |
| 1777353285 | 13.33° C | 89% | 1152.6 hPa | - | - | - | - |
| 1777352385 | 13.33° C | 91% | 1152.5 hPa | - | - | - | - |
| 1777351485 | 12.78° C | 94% | 1152.6 hPa | - | - | - | - |
| 1777350585 | 12.78° C | 94% | 1152.6 hPa | - | - | - | - |
| 1777349685 | 12.78° C | 92% | 1152.6 hPa | - | - | - | - |
| 1777348785 | 13.33° C | 88% | 1152.8 hPa | - | - | - | - |
* Rain since midnight (hover to see other rain measurements)
** Current wind speed in m/s (hover to see current wind gust speed)